User: anonymous   Login
Location: Unspecified
(33.2407°S, 0.0000°E)
Time: 08:57:26
(UTC+00:00)
Language:

NOAA 19 - Orbit

View from above orbital plane
View from above orbital plane
View from above satellite
View from above satellite

Ground track
Ground track

The orbit data is extracted from the following two-line orbital elements,

1 33591U 09005A   19204.89780059 +.00000074 +00000-0 +65577-4 0  9992
2 33591 099.1809 196.8751 0012926 280.9419 079.0297 14.12366646538615
Epoch (UTC): 23 July 2019 21:32:49
Eccentricity: 0.0012926
inclination: 99.1809°
perigee height: 842 km
apogee height: 860 km
right ascension of ascending node: 196.8751°
argument of perigee: 280.9419°
revolutions per day: 14.12366646
mean anomaly at epoch: 79.0297°
orbit number at epoch: 53861

The dashed part of the orbit path shows where the satellite is in the earth's shadow,  

DLR